KLM44M EGLL-EHAM

Flight info

Callsign KLM44M
Flight time N/A
Altitude 29000
Route EGLL/09R BPK6J BPK Q295 BRAIN M197 REDFA REDFA1A EHAM/06
Aircraft A333/H-KLM/L

Departure

Time N/A
Airport London Heathrow Airport (EGLL)

Arrival

Time 2026-04-29 16:21
Airport Amsterdam Airport Schiphol (EHAM)
Time Latitude Longitude Altitude Speed Heading
2026-04-29 16:20 52.29318 4.74772 27 ft 97 kts 59°
2026-04-29 16:20 52.29606 4.75531 21 ft 64 kts 57°
2026-04-29 16:21 52.29803 4.75820 19 ft 16 kts 28°
2026-04-29 16:21 52.29843 4.75854 19 ft 15 kts 28°
2026-04-29 16:21 52.29935 4.75934 16 ft 0 kts 28°
2026-04-29 16:23 52.29945 4.75941 16 ft 5 kts 26°
2026-04-29 16:23 52.29973 4.75969 16 ft 5 kts 34°
2026-04-29 16:24 52.29995 4.76003 17 ft 5 kts 50°
2026-04-29 16:24 52.30029 4.76076 16 ft 11 kts 56°
2026-04-29 16:24 52.30075 4.76195 16 ft 13 kts 59°
2026-04-29 16:24 52.30105 4.76277 17 ft 12 kts 59°
2026-04-29 16:25 52.30173 4.76456 17 ft 16 kts 58°
2026-04-29 16:25 52.30230 4.76607 18 ft 16 kts 59°
2026-04-29 16:25 52.30299 4.76786 15 ft 19 kts 58°
2026-04-29 16:25 52.30373 4.76978 14 ft 20 kts 58°
2026-04-29 16:26 52.30446 4.77170 14 ft 21 kts 57°
2026-04-29 16:26 52.30500 4.77309 15 ft 20 kts 57°
2026-04-29 16:26 52.30568 4.77487 17 ft 17 kts 58°
2026-04-29 16:26 52.30675 4.77585 17 ft 17 kts
2026-04-29 16:27 52.30790 4.77599 17 ft 19 kts
2026-04-29 16:27 52.30934 4.77613 16 ft 21 kts
2026-04-29 16:27 52.31098 4.77629 17 ft 22 kts
2026-04-29 16:27 52.31260 4.77646 17 ft 23 kts
2026-04-29 16:28 52.31416 4.77647 19 ft 22 kts 348°
2026-04-29 16:28 52.31548 4.77498 16 ft 24 kts 310°
2026-04-29 16:28 52.31579 4.77309 14 ft 10 kts 261°
2026-04-29 16:28 52.31541 4.77219 11 ft 8 kts 209°
2026-04-29 16:29 52.31484 4.77200 10 ft 11 kts 184°
2026-04-29 16:29 52.31426 4.77194 10 ft 14 kts 183°
2026-04-29 16:29 52.31378 4.77151 8 ft 0 kts 263°
2026-04-29 16:29 52.31379 4.77139 8 ft 4 kts 274°
2026-04-29 16:30 52.31389 4.77090 8 ft 5 kts 294°
2026-04-29 16:30 52.31402 4.77052 8 ft 0 kts 299°
2026-04-29 16:30 52.31403 4.77046 8 ft 0 kts 299°